Detroit Metro, MI

11:53 PM EDT on March 27, 2017 (GMT -0400)
Detroit Metro Wayne County

Weather History for KDTW - March, 2012

Change the Weather History Date:

Saturday, March 17, 2012

  Actual Average Record
Temperature  
Mean Temperature 62 °F 38 °F  
Max Temperature 75 °F 46 °F 75 °F (1945)
Min Temperature 48 °F 29 °F -2 °F (1900)
Degree Days  
Heating Degree Days 3 28  
Month to date heating degree days 305 519  
Since 1 July heating degree days 4173 5072  
Cooling Degree Days 0 0  
Month to date cooling degree days 1 0  
Year to date cooling degree days 1 0  
Growing Degree Days 12 (Base 50)    
Moisture  
Dew Point 52 °F    
Average Humidity 75    
Maximum Humidity 100    
Minimum Humidity 49    
Precipitation  
Precipitation 0.00 in 0.07 in 0.97 in (1973)
Month to date precipitation 1.61 1.19  
Year to date precipitation 6.52 5.17  
Snow  
Snow 0.00 in 0.20 in 8.40 in (1973)
Month to date snowfall 0.2 4.6  
Since 1 July snowfall 26.0 38.5  
Snow Depth 0.00 in    
Sea Level Pressure  
Sea Level Pressure 30.16 in    
Wind  
Wind Speed 5 mph (SSE)    
Max Wind Speed 15 mph    
Max Gust Speed 20 mph    
Visibility 4 miles    
Events Fog    
T = Trace of Precipitation, MM = Missing Value Source: NWS Daily Summary

Daily Weather History Graph

Daily Weather History Graph

Search for Another Location

Airport or City:

Trip Planner

Search our weather history database for the weather conditions in past years. The results will help you decide how hot, cold, wet, or windy it might be!

Date:

Astronomy

Mar. 17, 2012 Rise Set
Actual Time 7:41 AM EDT 7:42 PM EDT
Civil Twilight 7:13 AM EDT 8:10 PM EDT
Nautical Twilight 6:40 AM EDT 8:43 PM EDT
Astronomical Twilight 6:07 AM EDT 9:16 PM EDT
Moon 4:46 AM EDT (3/17) 3:01 PM EDT (3/17)
Length of Visible Light 12h 57m
Length of Day
12h 01m
Waning Crescent, 23% of the Moon is Illuminated
Mar 17
Waning Crescent
Mar 22
New
Mar 30
First Quarter
Apr 6
Full
Apr 13
Last Quarter

Hourly Weather History & Observations

Time (EDT) Temp. Dew Point Humidity Pressure Visibility Wind Dir Wind Speed Gust Speed Precip Events Conditions
12:53 AM 54.0 °F 51.1 °F 90% 30.14 in 4.0 mi ESE 4.6 mph - N/A   Partly Cloudy
1:53 AM 54.0 °F 52.0 °F 93% 30.14 in 3.0 mi Calm Calm - N/A   Partly Cloudy
1:58 AM 53.6 °F 51.8 °F 94% 30.14 in 3.0 mi Calm Calm - N/A   Mostly Cloudy
2:32 AM 53.6 °F 51.8 °F 94% 30.15 in 3.0 mi Calm Calm - N/A   Mostly Cloudy
2:53 AM 53.1 °F 52.0 °F 96% 30.15 in 3.0 mi Calm Calm - N/A   Mostly Cloudy
2:58 AM 53.6 °F 51.8 °F 94% 30.15 in 2.5 mi Calm Calm - N/A   Overcast
3:19 AM 53.6 °F 51.8 °F 94% 30.15 in 1.5 mi Calm Calm - N/A   Overcast
3:21 AM 53.6 °F 51.8 °F 94% 30.15 in 0.8 mi SE 3.5 mph - N/A   Overcast
3:33 AM 53.6 °F 51.8 °F 94% 30.15 in 0.2 mi SSE 4.6 mph - N/A Fog Fog
3:53 AM 53.1 °F 52.0 °F 96% 30.15 in 0.2 mi SSE 5.8 mph - N/A Fog Fog
4:53 AM 51.8 °F 51.8 °F 100% 30.15 in 0.2 mi Calm Calm - N/A Fog Fog
5:53 AM 51.1 °F 51.1 °F 100% 30.17 in 0.2 mi Calm Calm - N/A Fog Fog
6:25 AM 50.0 °F 50.0 °F 100% 30.17 in 0.1 mi Calm Calm - N/A Fog Fog
6:53 AM 48.9 °F 48.9 °F 100% 30.18 in 0.1 mi Calm Calm - N/A Fog Fog
7:08 AM 48.2 °F 48.2 °F 100% 30.18 in 0.2 mi Calm Calm - N/A Fog Fog
7:25 AM 48.2 °F 48.2 °F 100% 30.19 in 0.5 mi Calm Calm - N/A Fog Fog
7:33 AM 48.2 °F 48.2 °F 100% 30.19 in 0.5 mi Calm Calm - N/A   Mist
7:53 AM 48.9 °F 48.0 °F 97% 30.19 in 0.5 mi Calm Calm - N/A Fog Fog
8:04 AM 48.2 °F 48.2 °F 100% 30.19 in 0.2 mi Calm Calm - N/A Fog Fog
8:31 AM 48.2 °F 48.2 °F 100% 30.19 in 0.5 mi Calm Calm - N/A Fog Fog
8:38 AM 48.2 °F 48.2 °F 100% 30.19 in 0.5 mi Calm Calm - N/A   Mostly Cloudy
8:45 AM 48.2 °F 48.2 °F 100% 30.19 in 1.8 mi Calm Calm - N/A   Mostly Cloudy
8:53 AM 50.0 °F 48.9 °F 96% 30.20 in 1.8 mi Calm Calm - N/A   Mostly Cloudy
9:10 AM 50.0 °F 50.0 °F 100% 30.19 in 2.0 mi Calm Calm - N/A   Mostly Cloudy
9:26 AM 51.8 °F 50.0 °F 94% 30.19 in 3.0 mi Calm Calm - N/A   Mostly Cloudy
9:53 AM 54.0 °F 53.1 °F 97% 30.19 in 3.0 mi SSE 3.5 mph - N/A   Mostly Cloudy
10:53 AM 62.1 °F 55.9 °F 80% 30.19 in 5.0 mi SSE 5.8 mph - N/A   Haze
11:53 AM 66.0 °F 55.9 °F 70% 30.20 in 9.0 mi SSE 4.6 mph - N/A   Partly Cloudy
12:53 PM 71.1 °F 55.0 °F 57% 30.19 in 10.0 mi SSE 8.1 mph - N/A   Partly Cloudy
12:54 PM 71.1 °F 55.0 °F 57% 30.19 in 10.0 mi SSE 8.1 mph - N/A   Partly Cloudy
1:53 PM 73.0 °F 54.0 °F 51% 30.17 in 10.0 mi South 8.1 mph - N/A   Scattered Clouds
2:53 PM 73.9 °F 55.0 °F 52% 30.14 in 10.0 mi SSE 8.1 mph - N/A   Scattered Clouds
3:53 PM 75.0 °F 57.9 °F 55% 30.13 in 10.0 mi SSE 12.7 mph - N/A   Scattered Clouds
4:53 PM 73.9 °F 57.0 °F 55% 30.12 in 10.0 mi SSE 10.4 mph 19.6 mph N/A   Scattered Clouds
5:53 PM 73.9 °F 55.9 °F 53% 30.11 in 10.0 mi SE 8.1 mph - N/A   Scattered Clouds
6:53 PM 72.0 °F 55.9 °F 57% 30.11 in 10.0 mi ESE 9.2 mph - N/A   Scattered Clouds
7:53 PM 70.0 °F 55.0 °F 59% 30.11 in 10.0 mi ESE 6.9 mph - N/A   Scattered Clouds
8:53 PM 66.9 °F 55.9 °F 68% 30.11 in 10.0 mi ESE 3.5 mph - N/A   Scattered Clouds
9:53 PM 62.1 °F 55.0 °F 78% 30.12 in 9.0 mi SSE 4.6 mph - N/A   Partly Cloudy
10:53 PM 57.0 °F 52.0 °F 83% 30.12 in 8.0 mi SSE 4.6 mph - N/A   Clear
11:53 PM 53.1 °F 50.0 °F 89% 30.13 in 10.0 mi SSE 6.9 mph - N/A   Partly Cloudy